Regional Weather Roundup
Issued by NWS

Home | Current Version | Previous Version | Graphics & Text | Print | Product List | Glossary On
Versions: 1 2 3 4 5 6 7 8 9 10 11 12 13 14 15 16 17 18 19 20 21 22 23 24 25 26 27 28 29 30 31 32 33 34 35 36 37 38 39 40 41 42 43 44 45 46 47 48 49 50
000
ASUS43 KMKX 120000
RWRWI

WISCONSIN REGIONAL WEATHER ROUNDUP
NATIONAL WEATHER SERVICE MILWAUKEE/SULLIVAN WI
600 PM CST THU FEB 11 2016

NOTE: "FAIR" INDICATES FEW OR NO CLOUDS BELOW 12,000 FEET WITH NO
SIGNIFICANT WEATHER AND/OR OBSTRUCTIONS TO VISIBILITY.

WIZ001-002-006>008-014>016-023>028-120100-
NORTHWEST WISCONSIN

CITY           SKY/WX    TMP DP  RH WIND       PRES   REMARKS
SUPERIOR ARPT  CLOUDY    16  -3  42 W13       30.19S WCI   2
ASHLAND        CLOUDY    13  -3  49 SW10      30.17R WCI   0
6HR MIN TEMP:   8; 6HR MAX TEMP:  15;

HAYWARD        CLOUDY    12  -7  42 SW8       30.17R WCI   0
6HR MIN TEMP:   6; 6HR MAX TEMP:  13;

SIREN          CLOUDY    14  -2  48 W7        30.21S WCI   4
CUMBERLAND     CLOUDY    12   0  57 SW6       30.18S WCI   3
RICE LAKE      CLOUDY    13  -1  53 SW6       30.21S WCI   4
CHETEK         CLOUDY    13  -3  48 W5        30.21R WCI   5
LADYSMITH      CLOUDY    14  -5  42 W7        30.19S WCI   4
6HR MIN TEMP:   9; 6HR MAX TEMP:  16;

EAU CLAIRE     NOT AVBL
MENOMONIE      CLOUDY    17  -1  45 W6        30.23S WCI   8
6HR MIN TEMP:  17; 6HR MAX TEMP:  26;

NEW RICHMOND   CLOUDY    15   0  53 SW7       30.22S WCI   5
OSCEOLA        CLOUDY    17   0  49 W6        30.26S WCI   8
$$

WIZ003>005-009-010-017-018-120100-
NORTH CENTRAL WISCONSIN

CITY           SKY/WX    TMP DP  RH WIND       PRES   REMARKS
MANITOWISH WTR CLOUDY    12  -6  45 W7        30.08R WCI   1
ARBOR VITAE    CLOUDY    14  -3  47 W6        30.08R WCI   5
WOODRUFF       CLOUDY    14  -3  47 W6        30.08R WCI   5
RHINELANDER    CLOUDY    13  -5  44 W8        30.09S WCI   2
6HR MIN TEMP:  12; 6HR MAX TEMP:  15;

EAGLE RIVER    CLOUDY    13  -5  44 CALM      30.06F
LAND O LAKES   CLOUDY     8  -3  59 CALM      30.06F
PHILLIPS       CLOUDY    12  -4  47 SW8       30.12R WCI   1
TOMAHAWK       CLOUDY    13  -7  41 CALM      30.12S
MEDFORD        CLOUDY    11  -5  47 W6        30.14R WCI   1
MERRILL        CLOUDY    12  -3  52 SW7       30.15F WCI   1
$$

WIZ029-030-035-036-043>047-120100-
CENTRAL WISCONSIN

CITY           SKY/WX    TMP DP  RH WIND       PRES   REMARKS
WAUSAU         CLOUDY    13  -2  51 W5        30.15F WCI   5
6HR MIN TEMP:  12; 6HR MAX TEMP:  15;

MOSINEE        CLOUDY    10   1  67 W5        30.18S WCI   2
MARSHFIELD     CLOUDY    14  -4  44 SW8       30.16S WCI   3
6HR MIN TEMP:   8; 6HR MAX TEMP:  16;

STEVENS POINT  CLOUDY    13  -3  49 CALM      30.19S
WAUPACA        CLEAR     16  -2  44 SW5       30.21S WCI   9
WAUTOMA        NOT AVBL
WISC RAPIDS    CLOUDY    16  -5  39 W5        30.21S WCI   9
6HR MIN TEMP:  12; 6HR MAX TEMP:  18;

CAMP DOUGLAS   NOT AVBL
$$

WIZ011>013-019>022-031-037>040-048>050-120100-
NORTHEAST WISCONSIN

CITY           SKY/WX    TMP DP  RH WIND       PRES   REMARKS
ANTIGO         CLOUDY    10  -2  57 W10       30.12R WCI  -4
SHAWANO        MOCLDY    18  -5  36 SW8       30.19S WCI   8
OCONTO         CLEAR     16  -1  47 SW5       30.18S WCI   9
STURGEON BAY   CLEAR     14  -2  48 SW12      30.19F WCI   0
6HR MIN TEMP:  12; 6HR MAX TEMP:  16;

GREEN BAY      CLEAR     13  -4  46 SW7       30.20S WCI   3
6HR MIN TEMP:  13; 6HR MAX TEMP:  17;

MANITOWOC      NOT AVBL
APPLETON       PTCLDY    12  -6  44 SW7       30.18F WCI   2
CLINTONVILLE   MOCLDY    14  -6  41 W6        30.19S WCI   5
OSHKOSH        CLEAR     12  -2  53 SW5       30.21F WCI   4
6HR MIN TEMP:  12; 6HR MAX TEMP:  17;

$$

WIZ032>034-041-042-053>061-120100-
SOUTHWEST WISCONSIN

CITY           SKY/WX    TMP DP  RH WIND       PRES   REMARKS
LA CROSSE      CLOUDY    16   1  51 S9        30.26S WCI   4
6HR MIN TEMP:  10; 6HR MAX TEMP:  21;

SPARTA         CLOUDY    17  -2  42 W6        30.25R WCI   9
VIROQUA        CLOUDY    13  -1  53 SW6       30.21S WCI   4
BOSCOBEL       CLOUDY    16   0  49 SW5       30.28R WCI   9
6HR MIN TEMP:  16; 6HR MAX TEMP:  20;

PRAIRIE DU CHI CLOUDY    17   0  47 SW7       30.28S WCI   8
PLATTEVILLE    PTCLDY    17   2  52 CALM      30.25S
$$

WIZ056-057-062-063-064-067-068-120100-
SOUTH CENTRAL WISCONSIN

CITY           SKY/WX    TMP DP  RH WIND       PRES   REMARKS
REEDSBURG      CLEAR     16  -2  45 SW5       30.23R WCI   8
BARABOO/DELLS  CLEAR     15  -5  40 SW5       30.22R WCI   8
LONE ROCK      NOT AVBL
MINERAL POINT  CLOUDY    16   0  48 W3        30.23S
MADISON        PTCLDY    15  -1  49 W3        30.24R
6HR MIN TEMP:  13; 6HR MAX TEMP:  19;

MIDDLETON      CLEAR     17  -1  45 SW6       30.24R WCI   9
WATERTOWN      CLEAR     15  -1  48 CALM      30.23F
MONROE         CLEAR     18   1  49 W8        30.23S WCI   7
JANESVILLE     PTCLDY    19   3  49 SW5       30.25F WCI  13
$$

WIZ051-052-058>065-066-070>072-120100-
SOUTHEAST WISCONSIN

CITY           SKY/WX    TMP DP  RH WIND       PRES   REMARKS
MILWAUKEE      PTCLDY    17   0  47 SW6       30.26S WCI   9
6HR MIN TEMP:  16; 6HR MAX TEMP:  19;

WAUKESHA       CLEAR     12  -2  52 SW6       30.25S WCI   3
MILWAUKEE/TIMM CLEAR     16  -4  41 W6        30.26S WCI   7
RACINE         CLEAR     16   0  49 CALM      30.27F
6HR MIN TEMP:  15; 6HR MAX TEMP:  19;

BURLINGTON     CLEAR     13   0  57 SW3       30.26S
KENOSHA        CLEAR     16   2  54 SW6       30.26S WCI   7
6HR MIN TEMP:  13; 6HR MAX TEMP:  19;

FOND DU LAC    CLEAR     13  -1  54 SW3       30.22F
6HR MIN TEMP:  12; 6HR MAX TEMP:  16;

SHEBOYGAN      CLEAR     11  -1  58 SW7       30.23S WCI   0
6HR MIN TEMP:  11; 6HR MAX TEMP:  16;

WEST BEND      CLEAR     14   0  52 CALM      30.23S
JUNEAU         CLEAR     12   0  58 SW6       30.24S WCI   2
$$

LSZ147-162-120100-
LAKE SUPERIOR

STATION/POSITION TIME  TEMP    WIND        PRES    WAVE
                       AIR SEA DIR/SP/G            HT/PER
                 (UTC) (F)     (DEG/KT/KT) (MB)    (FT/S)
DEVILS ISLAND    2300   17     250/ 21/ 26 1021.7F
PORT WING        2300   15     230/  7/ 13 1021.7S
SAXON HARBOR     2340   15                 1021.0R
$$

LMZ867-665-643>646-120100-
LAKE MICHIGAN

STATION/POSITION TIME  TEMP    WIND        PRES    WAVE
                       AIR SEA DIR/SP/G            HT/PER
                 (UTC) (F)     (DEG/KT/KT) (MB)    (FT/S)
CHAMBERS ISLAND  2340   15     180/  5/ 12 1021.3F
ALGOMA LAKESHORE 2311          270/  4/  7   N/A
KEWAUNEE LAKESHO 2300   16     240/  7/ 10 1022.1S
SHEBOYGAN LAKESH 2300   17     260/ 10/ 11 1025.6R
PORT WASHINGTON  2300   17     270/  6/  9 1025.4S
MILWAUKEE LAKESH 2310   19     280/  6/  8   N/A
KENOSHA   LAKESH 2300   19     270/  8/  9 1025.1S
$$

TC  - TEMPERATURE IN CELSIUS
VSB - VISIBILITY IN STATUTE MILES
WCI - WIND CHILL INDEX
HX  - HEAT INDEX




USA.gov is the U.S. government's official web portal to all federal, state and local government web resources and services.